Vereeniging Airport

Jump to: basic info | weather | frequencies | runways | comments

Related pages: nearby airports | nearby navaids | notams | map

Basic information (top)

Codes: FAVV
Location: lon -26.566401, lat 27.960800, elev 4,846 ft / 1,477 m msl
Status: medium_airport

Weather (top)

Current conditions (rec'd 2014/11/25 01:00Z):

FAVV 250100Z AUTO 03002KT //// // ////// 13/10 Q1022

Airport forecast for OR Tambo International Airport 30nm (55km) NNE (rec'd 2014/11/24 00:00Z):

TAF FAOR 242200Z 2500/2606 03008KT CAVOK PROB30 
      TEMPO 2500/2502 -SHRA FEW040CB 
      BECMG 2507/2509 30012KT SCT040 PROB40 
      TEMPO 2511/2522 5000 TSRA FEW035CB 
      TEMPO 2512/2519 4000 TSRA SCT030CB 
      BECMG 2517/2519 02010KT 
      BECMG 2519/2521 CAVOK PROB40 
      TEMPO 2601/2606 4000 BR BKN005 TX24/2511ZTN10/2603Z

Frequencies (top)

Verify before use: may be inaccurate or out of date.

CTAF: 122.1 MHz (CTAF)

Runways (top)

03/21: 5,266 x 72 ft (1,605 x 22 m) — paved — lighted — threshold 21 displaced 260 ft (79 m)

15/33: 3,724 x 52 ft (1,135 x 16 m) — paved — not lighted

Latest comments (top)

help: My son whom is in Grade 11 has a school ... [read]

Information: Good day this is Mpho, i just need to ... [read]

More... (top)

See also NOTAMs and nearby airports and navaids, or visit the Vereeniging Airport page at the main OurAirports website..